EST,Max TemperatureF,Mean TemperatureF,Min TemperatureF,Max Dew PointF,MeanDew PointF,Min DewpointF,Max Humidity, Mean Humidity, Min Humidity, Max Sea Level PressureIn, Mean Sea Level PressureIn, Min Sea Level PressureIn, Max VisibilityMiles, Mean VisibilityMiles, Min VisibilityMiles, Max Wind SpeedMPH, Mean Wind SpeedMPH, Max Gust SpeedMPH,PrecipitationIn, CloudCover, Events, WindDirDegrees
2013-12-1,32,26,20,29,25,15,100,84,68,30.24,30.07,29.94,10,6,1,12,4,16,0.01,7,Snow,67
2013-12-2,32,29,25,31,28,24,100,96,92,29.99,29.89,29.81,6,3,0,6,1,7,0.03,8,Fog-Snow,46
2013-12-3,34,27,20,30,27,20,100,89,78,30.01,29.92,29.83,10,6,1,7,1,12,0.00,8,,227
2013-12-4,32,19,6,26,16,4,100,86,72,30.14,30.04,29.94,10,8,0,7,2,9,0.00,3,Fog,65
2013-12-5,50,35,19,47,37,20,100,92,83,30.07,29.89,29.76,10,8,3,21,9,28,0.02,7,Rain,223
2013-12-6,41,34,26,37,27,21,93,86,78,30.14,30.00,29.90,10,8,1,15,7,21,0.19,7,Rain-Snow,244
2013-12-7,26,22,18,20,15,10,84,75,65,30.45,30.26,30.09,10,6,1,13,5,18,T,8,Snow,277
2013-12-8,21,18,14,14,12,9,88,78,67,30.55,30.46,30.38,10,8,2,9,2,12,0.01,7,Snow,214
2013-12-9,35,27,19,32,25,14,92,82,72,30.34,29.88,29.72,10,7,1,31,11,38,0.03,8,Snow,206
2013-12-10,29,21,12,22,12,3,85,67,49,29.93,29.82,29.74,10,8,2,24,10,32,T,7,Snow,253
2013-12-11,20,12,3,10,7,2,91,68,45,30.15,30.02,29.92,10,7,1,21,6,32,T,7,Snow,257
2013-12-12,12,1,-10,7,2,-11,92,72,52,30.27,30.02,29.83,10,4,0,20,8,26,T,5,Fog-Snow,225
2013-12-13,13,-4,-21,10,2,-25,92,81,69,30.43,29.96,29.75,10,3,0,15,5,23,0.02,7,Fog-Snow,274
2013-12-14,10,-6,-23,7,-7,-26,91,82,72,30.56,30.29,29.87,10,5,1,14,6,17,0.05,5,Snow,65
2013-12-15,24,17,10,21,14,9,92,87,81,29.89,29.59,29.45,9,3,0,21,7,28,0.17,8,Fog-Snow,220
2013-12-16,12,-5,-22,9,-4,-26,91,77,62,30.22,29.88,29.58,10,7,2,16,5,26,T,4,Snow,252
2013-12-17,17,-5,-28,13,-4,-32,88,79,69,30.21,30.00,29.84,10,6,1,7,2,9,T,6,Snow,27
2013-12-18,24,17,10,20,16,10,92,88,84,29.98,29.88,29.81,10,5,1,13,4,22,T,8,Snow,241
2013-12-19,30,24,18,26,20,17,91,83,74,30.05,29.92,29.82,10,7,2,16,7,21,0.01,8,Snow,228
2013-12-20,40,34,27,38,31,25,100,93,85,30.04,29.85,29.78,9,2,0,9,2,12,0.39,8,Fog-Rain-Snow,41
2013-12-21,48,39,29,48,40,28,100,96,92,29.88,29.79,29.73,10,3,0,18,8,23,0.64,8,Fog-Rain,224
2013-12-22,38,32,25,37,28,23,100,96,92,29.97,29.74,29.62,10,4,0,22,8,28,0.72,8,Fog-Rain-Snow-Thunderstorm,66
2013-12-23,36,27,17,36,29,12,100,87,74,30.16,29.99,29.91,10,7,1,15,6,23,0.01,8,Snow,247
2013-12-24,17,7,-3,12,4,-8,92,77,61,30.35,30.18,30.03,10,7,2,14,6,20,T,6,Snow,246
2013-12-25,14,2,-10,6,-3,-12,92,75,58,30.51,30.42,30.28,10,9,3,9,3,13,0.00,4,,229
2013-12-26,23,17,11,20,15,5,92,74,56,30.24,30.07,29.96,10,4,1,16,6,21,0.01,8,Snow,221
2013-12-27,23,21,18,20,18,15,92,85,77,30.19,30.10,30.03,10,4,0,16,8,24,0.01,8,Fog-Snow,236
2013-12-28,34,27,19,31,27,18,92,84,75,30.07,29.96,29.89,10,5,2,17,9,23,T,8,Snow,234
2013-12-29,39,29,18,34,27,18,100,80,59,29.94,29.77,29.52,10,5,0,15,4,21,0.03,4,Fog-Rain-Snow,231
2013-12-30,35,13,-9,32,9,-11,100,80,60,30.21,29.86,29.52,10,6,1,16,7,31,0.01,5,Snow,268
2013-12-31,13,6,-2,10,5,-6,92,84,76,30.16,29.94,29.81,10,3,0,15,4,23,0.01,8,Fog-Snow,228